Погода в Мандалае

Мьянма     21°59′30″N   96°05′46″E
темп.,
°C
ветер,
м/с
пор.,
м/с
влажн.,
%
обл.,
%
осадки,
мм/ч
давл.,
гПа
погр.,
м
8 августа, пн
пн800:30+27ююв5108175 3.9 1003551
03:30+25ююв4890100 1.4 1003477
06:30+25ю369097 2.4 1004365
09:30+28ю3575100 0.1 1005673
12:30+32ю545889 0.4 10031393
15:30+32ю565698 0.6 10001447
18:30+28ю71170100 1.6 1002655
21:30+27ю51074100 0.1 1005647
9 августа, вт
вт900:30+26ю388076 0.1 1005543
03:30+26юв258097 0.0 1004395
06:30+26ююв118297 0.4 1005217
09:30+30ю126549 0.2 1005731
12:30+32ю455678 3.4 10031577
15:30+31ююв576040 2.1 10011149
18:30+28ю6106842 2.2 1002662
21:30+26ю5117799 0.0 1005652
10 августа, ср
ср1000:30+26ю51079100 0.0 1004642
03:30+25ю4880100 0.0 1003626
06:30+25ююв2581100 0.0 1005410
09:30+29ю5665100 0.1 10051165
12:30+31ю5659100 0.7 10031436
15:30+31ю5655100 0.4 10011506
18:30+30ю4860100 0.4 1002473
21:30+28ю5107120 0.0 1005597
11 августа, чт
чт1100:30+26ю51081100 0.0 1005608
03:30+25ю498148 0.0 1004517
06:30+25ююв368178 0.0 1005459
09:30+29ю466563 0.0 10061126
12:30+33ююз454997 0.1 10031824
15:30+33юз444893 0.0 10011654
18:30+31ююз3654100 0.0 1001372
21:30+30ю6961100 0.0 1003599
12 августа, пт
пт1200:30+28ю61171100 0.0 1003625
03:30+27ю5107395 0.0 1003682
06:30+27ю51075100 0.0 1004619
09:30+27ю5873100 0.1 1005795
12:30+27ю5875100 0.1 1004682
15:30+28ююв4770100 0.0 1002712
18:30+27юв357351 0.0 1002315
21:30+26ююв498293 0.2 1004471